Location: Colonia Mina de C?rbuni
(46.1667°N, 22.7167°E)
Time: 07:19:10
(UTC+00:00)

Courier 1B - Pass Details

Date: 27 April 2024
Orbit: 962 x 1208 km, 28.3° (Epoch: 26 May)

Event Time Altitude Azimuth Distance (km) Brightness Sun altitude
Rises 21:25:27 0° 221° (SW) 4,101 - -28.1°
Reaches altitude 10° 21:29:34 10° 202° (SSW) 3,135 - -28.3°
Maximum altitude 21:34:03 16° 167° (SSE) 2,664 - -28.5°
Drops below altitude 10° 21:38:28 10° 131° (SE) 3,091 - -28.6°
Sets 21:42:28 0° 112° (ESE) 4,017 - -28.8°
